Weather History for Jonesboro, AR

Change the Weather History Date:

Sunday, April 29, 2012

  Actual Average Record
Temperature  
Mean Temperature 76 °F 64 °F  
Max Temperature 87 °F 75 °F 96 °F (1901)
Min Temperature 64 °F 54 °F 35 °F (2008)
Degree Days  
Heating Degree Days 0 3  
Month to date heating degree days 103 193  
Since 1 July heating degree days 2688 3613  
Cooling Degree Days 11 2  
Month to date cooling degree days 96 39  
Year to date cooling degree days 180 45  
Growing Degree Days 26 (Base 50)    
Moisture  
Dew Point 59 °F    
Average Humidity 61    
Maximum Humidity 87    
Minimum Humidity 35    
Precipitation  
Precipitation 0.00 in 0.20 in 1.98 in (1924)
Month to date precipitation 1.22 4.81  
Year to date precipitation 11.15 16.46  
Snow  
Snow 0.00 in - - ()
Month to date snowfall 0.0  
Since 1 July snowfall 5.5  
Snow Depth 0.00 in    
Sea Level Pressure  
Sea Level Pressure 30.01 in    
Wind  
Wind Speed 6 mph (SW)    
Max Wind Speed 29 mph    
Max Gust Speed 62 mph    
Visibility 10 miles    
Events      
T = Trace of Precipitation, MM = Missing Value Source: NWS Daily Summary

Daily Weather History Graph

Daily Weather History Graph

Search for Another Location

Airport:

Trip Planner

Search our weather history database for the weather conditions in past years. The results will help you decide how hot, cold, wet, or windy it might be!

Date:

Astronomy

Apr. 29, 2012 Rise Set
Actual Time 6:11 AM CDT 7:48 PM CDT
Civil Twilight 5:44 AM CDT 8:15 PM CDT
Nautical Twilight 5:11 AM CDT 8:48 PM CDT
Astronomical Twilight 4:37 AM CDT 9:23 PM CDT
Moon 12:54 PM CDT (4/29) 1:48 AM CDT (4/29)
Length of Visible Light 14h 30m
Length of Day
13h 36m
First Quarter, 53% of the Moon is Illuminated
Apr 29
First Quarter
May 5
Full
May 12
Last Quarter
May 20
New
May 28
First Quarter

Hourly Weather History & Observations

Time (CDT) Temp. Heat Index Dew Point Humidity Pressure Visibility Wind Dir Wind Speed Gust Speed Precip Events Conditions
12:53 AM 68.0 °F - 61.0 °F 78% 30.00 in 10.0 mi Calm Calm - N/A   Mostly Cloudy
1:53 AM 66.9 °F - 61.0 °F 81% 29.99 in 10.0 mi Calm Calm - N/A   Scattered Clouds
2:53 AM 66.9 °F - 61.0 °F 81% 29.97 in 10.0 mi Calm Calm - N/A   Partly Cloudy
3:53 AM 68.0 °F - 60.1 °F 76% 29.98 in 10.0 mi South 4.6 mph - N/A   Clear
4:53 AM 66.9 °F - 60.1 °F 79% 30.00 in 10.0 mi SSW 4.6 mph - N/A   Clear
5:53 AM 66.9 °F - 60.1 °F 79% 30.01 in 10.0 mi South 3.5 mph - N/A   Clear
6:53 AM 64.0 °F - 60.1 °F 87% 30.03 in 10.0 mi Calm Calm - N/A   Clear
7:53 AM 69.1 °F - 61.0 °F 75% 30.04 in 10.0 mi Calm Calm - N/A   Clear
8:53 AM 73.9 °F - 63.0 °F 68% 30.04 in 10.0 mi SW 11.5 mph - N/A   Clear
9:53 AM 75.9 °F - 62.1 °F 62% 30.05 in 10.0 mi SSW 13.8 mph 18.4 mph N/A   Scattered Clouds
10:53 AM 79.0 °F - 62.1 °F 56% 30.06 in 10.0 mi WSW 15.0 mph - N/A   Clear
11:53 AM 81.0 °F 81.9 °F 62.1 °F 52% 30.06 in 10.0 mi SSW 13.8 mph 23.0 mph N/A   Clear
12:53 PM 82.9 °F 83.3 °F 61.0 °F 47% 30.04 in 10.0 mi SSW 16.1 mph 26.5 mph N/A   Mostly Cloudy
1:53 PM 84.9 °F 84.8 °F 60.1 °F 43% 30.02 in 10.0 mi SW 15.0 mph 21.9 mph N/A   Clear
2:53 PM 84.9 °F 84.2 °F 57.9 °F 40% 30.00 in 10.0 mi SSW 15.0 mph 26.5 mph N/A   Clear
3:53 PM 87.1 °F 85.9 °F 57.0 °F 36% 29.98 in 10.0 mi SSW 16.1 mph 19.6 mph N/A   Clear
4:53 PM 86.0 °F 84.7 °F 55.9 °F 36% 29.98 in 10.0 mi SW 13.8 mph 21.9 mph N/A   Clear
5:53 PM 86.0 °F 84.7 °F 55.9 °F 36% 29.98 in 10.0 mi SW 11.5 mph - N/A   Clear
6:53 PM 82.9 °F 81.9 °F 54.0 °F 37% 29.98 in 10.0 mi SW 11.5 mph - N/A   Clear
7:53 PM 79.0 °F - 55.0 °F 44% 29.99 in 10.0 mi SSW 4.6 mph - N/A   Clear
8:53 PM 73.4 °F - 57.2 °F 57% 30.01 in 10.0 mi NW 5.8 mph - N/A   Clear
9:13 PM 75.2 °F - 57.2 °F 53% 30.01 in 10.0 mi North - - N/A   Clear
9:53 PM 75.0 °F - 57.0 °F 53% 30.00 in 10.0 mi Variable 6.9 mph 62.1 mph N/A   Clear
10:04 PM 75.2 °F - 57.2 °F 53% 30.01 in 10.0 mi West 28.8 mph 54.1 mph N/A   Squalls
10:53 PM 73.9 °F - 59.0 °F 59% 29.99 in 10.0 mi South 6.9 mph - N/A   Clear
11:53 PM 73.0 °F - 60.1 °F 64% 29.98 in 10.0 mi South 6.9 mph - N/A   Clear